Weather History for KLEE - November, 2012

Change the Weather History Date:

Wednesday, November 28, 2012

  Actual Average Record
Temperature  
Mean Temperature 58 °F -  
Max Temperature 64 °F 76 °F 86 °F (1973)
Min Temperature 53 °F 57 °F 36 °F (2013)
Degree Days  
Heating Degree Days 6    
Growing Degree Days 8 (Base 50)    
Moisture  
Dew Point 55 °F    
Average Humidity 87    
Maximum Humidity 100    
Minimum Humidity 70    
Precipitation  
Precipitation 0.00 in - - ()
Sea Level Pressure  
Sea Level Pressure 30.24 in    
Wind  
Wind Speed 6 mph (NNE)    
Max Wind Speed 14 mph    
Max Gust Speed -    
Visibility 9 miles    
Events      
Averages and records for this station are not official NWS values.
T = Trace of Precipitation, MM = Missing Value Source: NWS Daily Summary

Daily Weather History Graph

Daily Weather History Graph

Search for Another Location

Airport or City:

Trip Planner

Search our weather history database for the weather conditions in past years. The results will help you decide how hot, cold, wet, or windy it might be!

Date:

Astronomy

Nov. 28, 2012 Rise Set
Actual Time 7:01 AM EST 5:29 PM EST
Civil Twilight 6:35 AM EST 5:55 PM EST
Nautical Twilight 6:06 AM EST 6:24 PM EST
Astronomical Twilight 5:37 AM EST 6:52 PM EST
Moon 5:44 PM EST (11/28) 6:57 AM EST (11/28)
Length of Visible Light 11h 19m
Length of Day
10h 28m
Full, 100% of the Moon is Illuminated
Nov 28
Full
Dec 6
Last Quarter
Dec 13
New
Dec 20
First Quarter
Dec 28
Full

Hourly Weather History & Observations

Time (EST) Temp. Dew Point Humidity Pressure Visibility Wind Dir Wind Speed Gust Speed Precip Events Conditions
12:53 AM 59.0 °F 57.9 °F 96% 30.14 in 6.0 mi Calm Calm - N/A   Clear
1:53 AM 61.0 °F 60.1 °F 97% 30.15 in 5.0 mi Calm Calm - N/A   Overcast
2:43 AM 62.6 °F 60.8 °F 94% 30.17 in 10.0 mi North 10.4 mph - N/A   Overcast
2:53 AM 62.1 °F 59.0 °F 90% 30.16 in 10.0 mi NNE 9.2 mph - N/A   Overcast
3:53 AM 60.1 °F 57.9 °F 93% 30.16 in 10.0 mi NE 4.6 mph - N/A   Mostly Cloudy
4:53 AM 57.9 °F 57.0 °F 97% 30.15 in 6.0 mi Calm Calm - N/A   Clear
5:11 AM 55.4 °F 55.4 °F 100% 30.16 in 1.8 mi Calm Calm - N/A   Clear
5:18 AM 57.2 °F 55.4 °F 94% 30.16 in 4.0 mi Calm Calm - N/A   Clear
5:53 AM 57.0 °F 57.0 °F 100% 30.17 in 6.0 mi North 3.5 mph - N/A   Clear
6:53 AM 57.0 °F 55.9 °F 96% 30.19 in 8.0 mi North 9.2 mph - N/A   Clear
7:53 AM 57.9 °F 55.9 °F 93% 30.22 in 7.0 mi North 6.9 mph - N/A   Clear
8:53 AM 61.0 °F 55.9 °F 83% 30.24 in 10.0 mi NNE 8.1 mph - N/A   Clear
9:05 AM 60.8 °F 55.4 °F 82% 30.25 in 10.0 mi NNE 11.5 mph - N/A   Partly Cloudy
9:21 AM 60.8 °F 55.4 °F 82% 30.26 in 10.0 mi NE 9.2 mph - N/A   Mostly Cloudy
9:53 AM 59.0 °F 55.9 °F 90% 30.27 in 7.0 mi NE 11.5 mph - N/A   Mostly Cloudy
10:53 AM 62.1 °F 55.9 °F 80% 30.28 in 10.0 mi NE 10.4 mph - N/A   Overcast
11:02 AM 62.6 °F 55.4 °F 77% 30.28 in 10.0 mi NE 10.4 mph - N/A   Overcast
11:53 AM 63.0 °F 55.0 °F 75% 30.28 in 10.0 mi NE 8.1 mph - N/A   Overcast
12:11 PM 62.6 °F 55.4 °F 77% 30.28 in 10.0 mi NE 13.8 mph - N/A   Overcast
12:53 PM 64.0 °F 54.0 °F 70% 30.26 in 10.0 mi NNE 11.5 mph - N/A   Overcast
1:53 PM 64.0 °F 54.0 °F 70% 30.24 in 10.0 mi NNE 10.4 mph - N/A   Overcast
2:53 PM 63.0 °F 54.0 °F 72% 30.24 in 10.0 mi NNE 11.5 mph - N/A   Overcast
3:53 PM 61.0 °F 54.0 °F 78% 30.25 in 10.0 mi NE 9.2 mph - N/A   Overcast
4:08 PM 60.8 °F 53.6 °F 77% 30.26 in 9.0 mi NE 10.4 mph - N/A   Overcast
4:53 PM 57.9 °F 53.1 °F 84% 30.26 in 9.0 mi ENE 10.4 mph - N/A   Overcast
5:53 PM 57.0 °F 53.1 °F 87% 30.27 in 10.0 mi NE 12.7 mph - N/A   Overcast
6:53 PM 57.0 °F 53.1 °F 87% 30.29 in 10.0 mi NNE 8.1 mph - N/A   Overcast
7:53 PM 57.0 °F 52.0 °F 83% 30.30 in 10.0 mi North 6.9 mph - N/A   Overcast
8:07 PM 55.4 °F 51.8 °F 88% 30.30 in 10.0 mi North 6.9 mph - N/A   Overcast
8:27 PM 55.4 °F 51.8 °F 88% 30.30 in 10.0 mi North 6.9 mph - N/A   Overcast
8:53 PM 55.9 °F 52.0 °F 87% 30.31 in 10.0 mi North 8.1 mph - N/A   Overcast
9:15 PM 55.4 °F 51.8 °F 88% 30.31 in 10.0 mi North 9.2 mph - N/A   Overcast
9:53 PM 55.0 °F 52.0 °F 89% 30.32 in 9.0 mi North 8.1 mph - N/A   Scattered Clouds
10:53 PM 53.1 °F 51.1 °F 93% 30.31 in 7.0 mi North 6.9 mph - N/A   Clear
11:53 PM 53.1 °F 51.1 °F 93% 30.29 in 6.0 mi North 5.8 mph - N/A   Clear